COSMOS 2151 (21422 NORAD) Tracking and Keplerian Element Data

This shows tracking and keplerian element data for the satellite.

Feedback or suggestion? Click here.




ElementValue
Catalog21422
NameCOSMOS 2151
Epoch Orbit49000
Epoch Day349.81309323
Epoch Year2018
RAAN86.2013
Inclination82.5016
Eccentricity0.0012679
Argument of Perigee268.5874
Mean Anonmoly91.3893
Mean Motion14.92004769
Decay Rate1.36E-06
L11 21422U 91042A 18349.81309323 .00000136 00000-0 10883-4 0 9995
L22 21422 82.5016 86.2013 0012679 268.5874 91.3893 14.92004769490008

Live tracking and technical data element details for COSMOS 2151 (NORAD 21422). COSMOS 2151 can be tracked NOW for your location showing map with azimuth and elevation plus other details from your city location.

Track the satellite on the map from your city or location and see movement details for azimuth, elevation, latitude, longitude, range, height, and movement on the map or in text.







IsCatalogInMostPopularTable: catalog: 21422, numindb: 45
Update: records affected: 1



GetName: 21422 COSMOS 2151

Hit Count: updated at: Sun, 16 Dec 2018 10:47:18 GMT